Retour au catalogue

CZ-6A DEB

ActifPO
NORAD 61103·DEBRIS·🇨🇳 China

Lancé Aug 6, 2024 depuis Taiyuan Satellite Launch Center

Loading…

Prochains Passages (prochaines 24 heures)

TLE

FraisSource: Space-Track

Époque: Sep 13, 2026, 11:55 UTC

1 61103U 24140NV  26256.49697246  .00000502  00000-0  15297-3 0  9994
2 61103  88.9701 259.4377 0043737 350.2991   9.7361 14.39983329107360

Suivez CZ-6A DEB en temps réel avec AllMySat

Download on the App Store